星链-30149 (STARLINK-30149 )

导读

STARLINK-30149是美国SpaceX公司星链星座的一员,于北京时间2023年8月7日发射入轨,属于星链网络扩容的卫星之一。星链计划旨在构建全球卫星互联网,该卫星延续了星链卫星的设计,为全球偏远地区、海上及空中提供低延迟宽带互联网接入服务,进一步完善了星链低轨卫星星座的全球覆盖能力。

Basic Information
目录编号:
57516
目录名称:
STARLINK-30149
国际标识:
2023-113Y
轨道中心:
EARTH
卫星名称:
星链-30149
卫星全名:
星链-30149 (STARLINK-30149 )
卫星状态:
在轨 (已飞行1046 天)
发射日期:
2023-08-07 UTC
国别 :
美国 (US)
星等 :
--
Orbit Information
数据来源 国际轨道数据 AOE轨道数据
星历时间 2026-06-18T08:53:40+0800
14小时前
查看轨道信息
2026-06-18T13:00:00+0800
10小时前
查看轨道信息
半长轴 6861.194km 6861.134km
偏心率 0.0001392 0.0001418
轨道倾角 43.003° 43.001°
近地点辐角 256.139° 235.268°
升交点赤经 169.228° 168.259°
平近点角 103.931° 346.694°
近地点 482.101km 482.024km
远地点 484.013km 483.97km
周期 94.267分钟 94.266分钟
每日圈数 15.275774 15.275977
Detailed Information
固有亮度:
5
最大亮度:
0.3
卫星平台:
Starlink v2.0 mini
覆盖范围:
全球
运营商:
太空探索技术公司
运营商所在国:
美国
制造商(研发单位):
太空探索技术公司
制造商所在国:
美国
使用方式:
暂无
Satellite Introduction
星链(Starlink)计划是由太空探索技术公司(SpaceX)提出的一个巨型低轨卫星互联网星座项目,计划在2019年至2024年间在太空搭建由约1.2万颗卫星组成的“星链”网络,其中1584颗将部署在地球上空550千米处的近地轨道,并从2020年开始工作。该卫星仍在工作。
2D Orbit Map
3D Orbit Map
Orbit Altitude Analysis Chart
Orbit Inclination Analysis Chart
Orbit Comprehensive Analysis Chart
View Comprehensive Chart